When you browse on this site, cookies collect data to enhance your experience and personalize the content and advertising you see.
Visit our Privacy Policy to learn more. By continuing to use the site, you agree to this use of cookies and data.
  • In Latvia
  • List of Countries
  • For 7 days
  • Water Temperature
  • Satellite Maps
  • Weather Map
  • Weather Widgets
  • user-avatar
    Login

    Hourly Weather Bregenz

    Today, 17 July, Wednesday

    Time Temperature Precipitation Wind Pressure Humidity
    00:00 +10°C° 0 mm 1 mps 647 mmHg 75%
    01:00 +10°C° 0 mm 1 mps 647 mmHg 77%
    02:00 +10°C° 0 mm 1 mps 646 mmHg 77%
    03:00 +9°C° 0 mm 1 mps 646 mmHg 78%
    04:00 +9°C° 0 mm 1 mps 646 mmHg 78%
    05:00 +11°C° 0 mm 1 mps 646 mmHg 75%
    06:00 +12°C° 0 mm 1 mps 647 mmHg 73%
    07:00 +13°C° 0 mm 1 mps 647 mmHg 69%
    08:00 +15°C° 0 mm 1 mps 647 mmHg 64%
    09:00 +18°C° 0 mm 1 mps 648 mmHg 58%
    10:00 +20°C° 0 mm 1 mps 648 mmHg 52%
    11:00 +20°C° 0 mm 1 mps 648 mmHg 52%
    12:00 +20°C° 0 mm 2 mps 648 mmHg 51%
    13:00 +20°C° 0 mm 2 mps 648 mmHg 50%
    14:00 +20°C° 0.2 mm 2 mps 648 mmHg 52%
    15:00 +20°C° 0.2 mm 2 mps 648 mmHg 55%
    16:00 +20°C° 0.2 mm 2 mps 648 mmHg 57%
    17:00 +19°C° 0.2 mm 1 mps 647 mmHg 63%
    18:00 +18°C° 0.2 mm 1 mps 647 mmHg 68%
    19:00 +16°C° 0.2 mm 1 mps 647 mmHg 73%
    20:00 +15°C° 0 mm 1 mps 646 mmHg 76%
    21:00 +13°C° 0 mm 1 mps 646 mmHg 79%
    22:00 +11°C° 0 mm 1 mps 646 mmHg 81%
    23:00 +11°C° 0 mm 1 mps 646 mmHg 82%

    Tomorrow, 18 July, Thursday

    Time Temperature Precipitation Wind Pressure Humidity
    00:00 +11°C° 0 mm 1 mps 645 mmHg 83%
    01:00 +10°C° 0 mm 1 mps 645 mmHg 83%
    02:00 +10°C° 0 mm 1 mps 645 mmHg 83%
    03:00 +10°C° 0 mm 1 mps 645 mmHg 82%
    04:00 +10°C° 0 mm 1 mps 645 mmHg 82%
    05:00 +11°C° 0 mm 1 mps 645 mmHg 80%
    06:00 +12°C° 0 mm 1 mps 645 mmHg 77%
    07:00 +13°C° 0 mm 1 mps 646 mmHg 75%
    08:00 +14°C° 0 mm 1 mps 646 mmHg 70%
    09:00 +16°C° 0 mm 1 mps 647 mmHg 64%
    10:00 +17°C° 0 mm 2 mps 647 mmHg 58%
    11:00 +18°C° 0.1 mm 2 mps 647 mmHg 56%
    12:00 +18°C° 0.1 mm 2 mps 648 mmHg 53%
    13:00 +19°C° 0.1 mm 2 mps 648 mmHg 51%
    14:00 +19°C° 0.2 mm 2 mps 648 mmHg 54%
    15:00 +19°C° 0.2 mm 2 mps 648 mmHg 57%
    16:00 +20°C° 0.2 mm 1 mps 648 mmHg 60%
    17:00 +19°C° 0.2 mm 1 mps 647 mmHg 66%
    18:00 +18°C° 0.2 mm 1 mps 647 mmHg 72%
    19:00 +15°C° 0.2 mm 0 mps 647 mmHg 78%
    20:00 +14°C° 0.1 mm 1 mps 647 mmHg 81%
    21:00 +13°C° 0.1 mm 1 mps 647 mmHg 83%
    22:00 +11°C° 0.1 mm 1 mps 647 mmHg 85%
    23:00 +11°C° 0 mm 1 mps 647 mmHg 86%

    Day after tomorrow, 19 July, Friday

    Time Temperature Precipitation Wind Pressure Humidity
    00:00 +11°C° 0 mm 1 mps 647 mmHg 86%
    01:00 +11°C° 0 mm 1 mps 647 mmHg 86%
    02:00 +10°C° 0 mm 1 mps 647 mmHg 86%
    03:00 +10°C° 0 mm 1 mps 647 mmHg 86%
    04:00 +10°C° 0 mm 1 mps 647 mmHg 86%
    05:00 +11°C° 0 mm 1 mps 647 mmHg 85%
    06:00 +12°C° 0 mm 1 mps 648 mmHg 83%
    07:00 +13°C° 0 mm 1 mps 648 mmHg 81%
    08:00 +15°C° 0.1 mm 1 mps 649 mmHg 75%
    09:00 +18°C° 0.1 mm 1 mps 649 mmHg 69%
    10:00 +19°C° 0.1 mm 1 mps 649 mmHg 63%
    11:00 +20°C° 0.2 mm 1 mps 649 mmHg 62%
    12:00 +19°C° 0.2 mm 2 mps 649 mmHg 62%
    13:00 +20°C° 0.2 mm 2 mps 649 mmHg 61%
    14:00 +19°C° 0.5 mm 2 mps 649 mmHg 65%
    15:00 +20°C° 0.5 mm 1 mps 649 mmHg 69%
    16:00 +20°C° 0.5 mm 1 mps 649 mmHg 73%
    17:00 +19°C° 0.3 mm 1 mps 649 mmHg 76%
    18:00 +19°C° 0.3 mm 1 mps 649 mmHg 79%
    19:00 +16°C° 0.3 mm 0 mps 649 mmHg 82%
    20:00 +15°C° 0 mm 1 mps 649 mmHg 84%
    21:00 +14°C° 0 mm 1 mps 649 mmHg 86%
    22:00 +12°C° 0 mm 1 mps 648 mmHg 88%
    23:00 +12°C° 0 mm 1 mps 648 mmHg 88%

    20 July, Saturday

    Time Temperature Precipitation Wind Pressure Humidity
    00:00 +12°C° 0 mm 1 mps 648 mmHg 89%
    01:00 +11°C° 0 mm 1 mps 648 mmHg 89%
    02:00 +11°C° 0 mm 1 mps 648 mmHg 89%
    03:00 +11°C° 0 mm 1 mps 648 mmHg 89%
    04:00 +11°C° 0 mm 1 mps 647 mmHg 89%
    05:00 +12°C° 0 mm 1 mps 648 mmHg 87%
    06:00 +13°C° 0 mm 1 mps 648 mmHg 84%
    07:00 +14°C° 0 mm 1 mps 649 mmHg 82%
    08:00 +16°C° 0.1 mm 1 mps 649 mmHg 74%
    09:00 +19°C° 0.1 mm 1 mps 650 mmHg 67%
    10:00 +22°C° 0.1 mm 1 mps 651 mmHg 59%
    11:00 +22°C° 0.1 mm 1 mps 651 mmHg 56%
    12:00 +23°C° 0.1 mm 1 mps 651 mmHg 54%
    13:00 +24°C° 0.1 mm 1 mps 651 mmHg 51%
    14:00 +24°C° 0.1 mm 1 mps 651 mmHg 51%
    15:00 +24°C° 0.1 mm 1 mps 651 mmHg 50%
    16:00 +24°C° 0.1 mm 1 mps 651 mmHg 50%
    17:00 +23°C° 0.3 mm 1 mps 651 mmHg 58%
    18:00 +21°C° 0.3 mm 1 mps 651 mmHg 66%
    19:00 +20°C° 0.3 mm 1 mps 651 mmHg 74%
    20:00 +18°C° 0.3 mm 1 mps 651 mmHg 77%
    21:00 +15°C° 0.3 mm 1 mps 651 mmHg 80%
    22:00 +14°C° 0.3 mm 2 mps 650 mmHg 83%
    23:00 +13°C° 0.2 mm 2 mps 650 mmHg 83%

    21 July, Sunday

    Time Temperature Precipitation Wind Pressure Humidity
    00:00 +13°C° 0.2 mm 2 mps 650 mmHg 84%
    01:00 +13°C° 0.2 mm 2 mps 650 mmHg 84%
    02:00 +13°C° 0 mm 2 mps 650 mmHg 83%
    03:00 +13°C° 0 mm 2 mps 650 mmHg 81%
    04:00 +13°C° 0 mm 2 mps 650 mmHg 80%
    05:00 +14°C° 0 mm 1 mps 651 mmHg 78%
    06:00 +15°C° 0 mm 1 mps 651 mmHg 76%
    07:00 +16°C° 0 mm 1 mps 652 mmHg 75%
    08:00 +18°C° 0.2 mm 1 mps 652 mmHg 70%
    09:00 +20°C° 0.2 mm 1 mps 653 mmHg 66%
    10:00 +21°C° 0.2 mm 1 mps 654 mmHg 62%
    11:00 +22°C° 0.3 mm 1 mps 654 mmHg 60%
    12:00 +23°C° 0.3 mm 1 mps 654 mmHg 58%
    13:00 +24°C° 0.3 mm 2 mps 654 mmHg 55%
    14:00 +24°C° 0.2 mm 1 mps 654 mmHg 58%
    15:00 +23°C° 0.2 mm 1 mps 654 mmHg 61%
    16:00 +23°C° 0.2 mm 1 mps 654 mmHg 63%
    17:00 +22°C° 0.2 mm 1 mps 654 mmHg 70%
    18:00 +21°C° 0.2 mm 1 mps 653 mmHg 77%
    19:00 +20°C° 0.2 mm 1 mps 653 mmHg 83%
    20:00 +19°C° 0 mm 1 mps 653 mmHg 85%
    21:00 +16°C° 0 mm 1 mps 653 mmHg 87%
    22:00 +15°C° 0 mm 1 mps 653 mmHg 89%
    23:00 +14°C° 0 mm 1 mps 652 mmHg 90%

    22 July, Monday

    Time Temperature Precipitation Wind Pressure Humidity
    00:00 +14°C° 0 mm 1 mps 652 mmHg 90%
    01:00 +14°C° 0 mm 1 mps 652 mmHg 90%
    02:00 +13°C° 0 mm 1 mps 652 mmHg 90%
    03:00 +13°C° 0 mm 1 mps 651 mmHg 89%
    04:00 +13°C° 0 mm 1 mps 651 mmHg 89%
    05:00 +14°C° 0 mm 1 mps 652 mmHg 86%
    06:00 +15°C° 0 mm 1 mps 652 mmHg 84%
    07:00 +18°C° 0 mm 1 mps 652 mmHg 81%
    08:00 +20°C° 0 mm 1 mps 653 mmHg 72%
    09:00 +22°C° 0 mm 1 mps 654 mmHg 64%
    10:00 +24°C° 0 mm 1 mps 654 mmHg 55%
    11:00 +25°C° 0 mm 1 mps 654 mmHg 53%
    12:00 +26°C° 0 mm 1 mps 654 mmHg 51%
    13:00 +26°C° 0 mm 1 mps 654 mmHg 48%
    14:00 +26°C° 0 mm 1 mps 654 mmHg 49%
    15:00 +26°C° 0 mm 2 mps 653 mmHg 50%
    16:00 +26°C° 0 mm 2 mps 653 mmHg 51%
    17:00 +24°C° 0.3 mm 1 mps 653 mmHg 61%
    18:00 +23°C° 0.3 mm 1 mps 652 mmHg 72%
    19:00 +21°C° 0.3 mm 1 mps 652 mmHg 82%
    20:00 +20°C° 0.1 mm 1 mps 652 mmHg 84%
    21:00 +18°C° 0.1 mm 1 mps 652 mmHg 86%
    22:00 +16°C° 0.1 mm 1 mps 651 mmHg 88%
    23:00 +15°C° 0.2 mm 1 mps 651 mmHg 88%
    Show more